Theta_e
309 309 309 309 309 310 311 311 311 312 314 315 315 315 317 317 316 316 309 310 318 325 325 314 310 310 307 307 305 303 300 297 298 298 301 304 304 308 314 320 324 326 326 329 335
308 308 309 309 309 309 309 310 310 311 312 314 314 315 317 316 313 312 319 326 328 329 316 308 305 309 306 304 305 304 299 298 301 301 302 303 303 304 308 320 322 325 329 331 334
308 308 308 308 308 309 309 309 310 310 311 312 314 315 315 315 309 307 326 326 327 326 315 311 309 307 302 303 303 300 299 300 301 303 304 303 304 305 309 317 322 323 326 329 331
307 307 307 308 308 308 309 309 309 310 310 311 314 314 315 313 291 316 326 325 324 315 311 308 307 303 301 300 302 299 301 301 303 303 303 303 304 305 304 312 312 324 330 330 328
307 307 307 307 307 308 308 308 309 310 310 311 313 314 309 301 303 318 321 318 316 313 308 306 303 302 299 300 300 299 301 302 303 303 303 303 304 304 305 309 314 326 329 329 329
307 306 306 306 307 307 307 308 309 309 310 311 311 313 304 290 306 315 306 307 314 313 310 307 305 306 301 301 300 301 301 302 302 302 303 303 304 303 307 307 316 326 328 329 329
306 306 306 306 306 306 306 307 308 308 309 311 311 310 299 295 306 306 306 308 311 310 309 309 307 304 304 300 303 301 298 300 301 301 302 303 301 300 308 306 307 323 327 328 330
306 306 306 305 305 305 306 306 307 307 308 310 311 307 294 305 308 305 305 302 311 315 313 312 309 305 304 306 302 299 298 294 298 300 302 303 297 302 307 305 306 311 321 326 329
304 304 304 305 305 306 305 306 306 307 308 310 305 301 292 307 301 307 309 305 308 313 312 314 312 304 303 300 296 297 292 292 294 299 299 300 297 303 306 304 306 306 306 312 322
304 303 303 304 305 305 306 306 306 307 306 307 306 294 297 293 300 304 315 312 309 308 306 306 303 299 299 297 289 291 290 292 293 297 297 298 298 302 303 303 306 307 306 306 307
303 303 304 304 304 305 303 299 293 292 296 292 292 293 295 300 303 302 302 308 310 307 295 300 294 292 295 299 298 294 293 293 294 297 297 297 297 300 303 302 302 304 304 305 306
303 304 303 303 303 304 300 294 295 297 288 294 294 296 299 300 292 296 301 300 303 295 299 296 291 296 298 299 297 296 294 292 294 297 296 296 296 299 301 302 303 304 305 306 307
302 302 302 302 303 299 295 296 302 301 288 289 293 292 294 298 292 293 296 302 298 296 295 292 295 298 296 296 296 295 294 294 293 296 298 295 294 296 300 302 302 303 306 307 307
301 301 303 303 296 296 292 300 302 303 281 282 289 293 296 297 291 299 297 296 299 294 296 295 298 295 295 293 296 292 298 297 295 293 289 295 286 295 297 298 299 303 303 305 307
302 302 303 302 296 292 295 300 302 298 269 284 289 300 298 291 292 293 298 293 289 296 295 293 293 294 291 294 298 294 299 296 296 293 292 292 289 293 296 295 298 301 301 304 306
303 303 303 297 297 297 299 299 297 280 269 282 291 291 290 292 292 294 294 297 295 292 297 295 300 298 296 297 299 300 296 296 295 293 285 291 290 291 295 297 299 300 302 304 307
303 303 301 300 292 298 299 293 277 272 285 282 284 289 288 288 289 289 290 288 285 283 284 290 293 298 300 295 297 298 294 286 283 283 283 292 290 292 297 298 299 301 303 304 307
303 302 299 299 299 299 295 281 269 276 280 287 288 288 284 287 289 289 287 287 291 290 288 283 282 293 298 296 294 294 293 286 279 281 284 291 286 292 300 302 303 304 304 305 305
301 294 293 297 300 299 287 272 272 278 286 285 286 283 283 287 288 288 287 286 289 292 284 285 286 296 298 298 297 294 291 297 289 290 286 288 292 297 300 299 302 303 304 305 307
293 290 290 302 300 294 283 276 278 284 287 285 281 285 281 284 285 286 286 291 289 294 295 289 282 291 296 299 298 295 299 290 291 281 280 286 288 289 294 298 301 302 303 305 306
290 284 292 301 299 289 278 278 282 287 287 285 284 283 284 283 285 284 285 290 292 293 293 292 289 287 292 291 291 292 291 292 292 290 283 282 287 299 297 300 300 302 305 303 306
287 277 292 299 286 285 280 284 288 286 288 286 289 287 285 285 284 284 284 287 295 294 287 291 288 283 287 294 296 296 293 292 286 285 288 287 287 299 301 302 302 303 303 305 305
282 283 291 295 281 281 282 283 286 286 287 286 286 289 289 286 282 286 287 293 294 293 289 290 287 280 281 288 293 290 293 294 293 292 286 284 287 300 301 300 302 301 304 306 305
282 274 280 284 283 282 277 278 281 287 286 288 288 289 286 284 287 284 286 290 293 291 295 291 287 284 280 283 287 285 288 290 290 286 287 288 290 296 299 299 302 303 303 304 305
281 277 282 274 277 278 280 281 279 279 286 287 285 284 281 282 284 283 286 288 290 292 292 291 283 286 287 288 288 287 288 289 286 287 284 290 291 295 298 300 302 302 302 303 302
280 280 283 281 282 280 281 275 278 280 281 279 279 282 281 279 281 280 284 285 285 290 290 292 284 287 284 288 288 286 288 289 288 288 289 289 288 298 302 303 302 302 302 302 303
287 288 286 280 280 278 277 279 281 282 282 283 282 280 279 282 286 287 288 288 286 285 285 286 286 283 279 285 285 281 286 287 289 292 291 286 292 297 297 298 298 300 302 303 304
Wind_Speed
17 17 17 17 16 16 17 18 18 18 18 17 19 19 21 21 21 4 5 5 8 15 8 10 6 6 2 1 1 2 3 4 4 6 3 5 7 3 2 4 2 4 2 3 20
17 17 17 17 17 17 18 19 19 18 18 18 18 17 18 21 6 9 4 10 13 12 4 6 4 5 3 1 1 3 5 12 4 3 1 2 3 7 4 5 3 3 8 14 19
17 18 18 18 18 18 18 18 18 19 18 19 17 18 19 18 5 2 2 9 9 2 3 3 3 2 2 1 3 3 5 6 5 6 2 2 3 5 3 6 6 11 12 16 18
16 17 18 18 18 18 17 17 18 19 19 17 18 17 20 3 6 3 7 12 12 4 3 3 4 5 5 5 2 4 6 5 3 5 2 3 5 8 4 3 4 5 17 18 19
15 15 17 17 18 19 19 19 18 17 18 18 18 16 7 3 10 2 12 14 7 6 7 4 3 4 5 4 2 5 4 5 9 5 4 1 7 3 11 10 2 5 16 19 19
14 15 16 17 18 18 19 20 19 18 17 17 16 14 3 8 5 7 14 12 7 7 6 3 2 3 2 4 6 2 4 8 5 6 4 7 6 7 6 2 4 11 15 17 19
15 15 16 17 18 19 20 20 19 20 18 16 14 7 9 19 10 14 15 6 6 6 5 2 2 0 2 2 3 2 6 8 10 5 6 8 11 10 15 2 6 9 10 13 18
16 17 18 19 19 19 20 21 22 21 20 16 12 3 10 7 9 14 12 11 10 10 10 5 3 2 3 3 1 4 3 9 2 12 8 10 15 11 12 10 11 9 8 9 13
16 16 18 18 19 20 23 24 26 23 16 11 3 1 13 9 6 9 9 6 3 6 8 4 2 4 4 5 4 6 10 9 7 10 3 16 12 12 8 11 13 11 10 10 11
14 16 17 17 18 20 23 27 21 6 3 3 3 4 6 3 6 10 4 6 4 6 5 7 6 6 5 11 17 13 7 7 8 3 6 8 15 7 6 12 15 14 12 12 13
15 15 15 17 20 20 15 6 6 4 6 7 7 10 10 7 7 3 4 2 4 5 12 8 8 18 25 20 11 5 12 13 5 6 3 9 10 15 14 10 11 11 12 13 14
15 15 17 19 20 16 4 5 4 8 14 11 19 23 23 11 10 8 3 7 7 12 9 9 21 21 11 15 14 15 12 8 3 6 3 6 16 10 15 13 13 15 16 15 14
13 15 17 18 19 3 6 4 10 11 7 8 12 13 14 14 12 16 3 4 6 10 17 21 26 12 14 15 15 18 21 18 13 4 7 7 18 12 12 13 14 17 18 17 17
13 15 13 17 5 5 3 9 11 3 5 8 4 5 3 5 9 15 12 8 7 13 12 12 18 16 19 20 18 22 15 14 12 7 11 4 14 21 14 19 19 18 16 18 19
14 14 11 9 4 5 6 10 9 1 5 3 3 2 5 11 8 2 6 9 16 4 6 10 6 17 21 16 17 13 6 12 13 15 12 15 9 14 9 19 23 17 14 16 18
17 13 14 2 2 7 7 9 1 2 7 7 2 1 2 10 6 6 5 6 7 12 10 14 1 4 16 18 11 8 7 7 14 11 15 22 16 25 18 21 18 8 11 13 15
15 15 11 3 3 2 3 3 3 2 4 6 9 10 5 4 4 6 3 9 10 9 14 21 21 12 10 5 16 12 10 7 9 9 14 16 17 25 6 5 9 12 14 12 13
16 15 4 3 2 1 1 4 2 4 5 10 9 20 5 13 4 3 3 5 12 3 5 12 11 18 12 16 9 22 19 10 15 15 16 14 13 22 11 26 26 22 14 11 11
10 3 3 2 3 3 2 3 6 5 3 9 13 8 7 11 7 1 6 3 5 12 9 6 11 6 9 17 17 13 21 24 15 9 9 6 19 19 18 14 14 13 14 14 12
2 2 3 2 6 3 2 4 5 4 7 6 6 2 11 12 8 10 5 5 7 5 6 8 16 15 10 12 21 22 14 13 14 20 25 14 17 11 4 13 19 15 14 14 11
3 3 4 6 2 0 2 5 6 9 10 6 3 6 5 8 3 7 4 7 5 7 9 6 9 6 10 15 17 12 18 16 9 16 18 19 18 15 13 9 10 13 11 7 8
2 3 3 2 2 2 2 5 7 9 5 6 6 9 11 9 6 5 6 4 8 4 7 6 5 11 17 18 12 11 15 22 16 23 16 19 20 11 13 23 19 13 7 6 7
2 2 2 2 3 1 4 6 5 5 5 4 5 5 3 5 6 5 5 5 7 5 4 9 4 7 8 11 14 11 15 16 18 19 22 20 17 17 22 24 18 10 16 16 10
3 3 4 3 2 2 6 6 6 5 9 5 6 10 12 13 12 10 9 7 10 16 10 10 4 5 8 6 4 7 12 8 12 9 20 21 23 25 16 13 16 16 6 11 9
2 2 2 3 2 2 4 5 9 6 6 8 4 6 10 6 9 11 7 6 6 9 5 11 8 9 12 15 17 11 14 15 11 13 7 12 22 28 23 21 16 12 11 8 7
2 1 1 3 6 4 1 3 10 8 4 11 5 11 14 9 13 20 10 7 7 5 3 7 4 2 4 13 14 15 12 14 21 16 13 7 11 23 24 21 19 16 11 13 13
1 1 1 4 2 1 4 4 3 8 8 8 13 16 17 18 13 15 16 15 16 13 6 6 4 3 14 10 12 11 18 19 14 8 9 11 14 13 20 20 20 20 17 16 14
Wind_Direction
14 10 7 6 360 1 359 356 353 349 347 344 343 340 334 331 322 311 289 269 284 291 315 306 318 329 332 311 25 198 125 191 219 183 131 347 360 346 311 173 208 139 91 94 135
9 6 4 5 360 357 358 352 348 346 343 341 339 337 332 329 313 274 261 303 298 291 222 218 275 348 312 291 248 208 194 192 196 200 248 333 335 329 339 172 172 133 79 128 144
5 4 2 0 359 356 353 349 343 342 340 338 337 336 332 327 303 207 332 319 343 335 247 174 145 181 229 300 196 168 221 203 207 215 236 320 296 317 294 209 200 198 155 160 159
3 1 358 356 355 354 350 345 340 337 335 335 333 336 323 297 265 123 37 1 359 354 32 128 155 173 188 213 195 231 237 209 196 177 183 289 308 319 243 258 350 224 162 163 173
2 359 357 353 350 350 344 342 336 331 329 330 329 336 342 288 246 251 26 2 10 9 30 30 194 163 198 200 195 226 247 205 249 253 234 224 243 253 275 265 309 158 162 178 186
360 359 356 353 348 346 342 337 333 325 323 321 322 330 273 261 275 337 349 334 346 6 341 347 55 322 217 249 198 192 242 264 267 258 259 228 257 166 253 327 161 173 185 184 191
356 356 356 353 348 342 338 332 323 316 310 309 311 312 260 255 296 307 318 291 289 269 289 252 290 5 344 198 255 253 274 278 238 208 242 212 236 217 239 233 218 211 209 197 202
355 353 350 347 344 340 333 325 314 304 301 300 307 310 261 265 291 292 279 277 251 233 228 249 267 214 207 281 243 229 191 246 230 201 224 191 254 216 227 182 208 210 220 221 210
346 344 342 339 338 336 331 320 304 301 296 292 303 204 267 298 274 277 222 249 261 190 202 230 234 236 164 202 234 217 235 229 261 195 153 212 246 227 189 198 213 215 215 219 227
345 345 337 339 337 334 328 312 305 312 317 205 236 306 258 300 320 297 261 225 221 200 201 186 183 195 194 188 218 222 221 225 229 143 210 211 234 258 254 214 214 213 211 213 222
346 342 344 343 338 333 327 336 9 344 12 279 250 253 295 334 318 260 297 212 195 199 197 181 189 208 207 211 220 232 232 222 190 250 265 241 253 257 262 258 262 248 239 233 229
345 348 344 339 336 340 5 25 38 314 297 242 252 255 256 285 298 277 267 199 183 207 194 183 223 217 211 208 217 234 245 241 279 262 260 270 266 242 268 263 249 253 253 245 238
345 344 341 338 328 38 333 3 328 345 271 305 241 253 243 209 233 263 236 219 202 203 206 210 226 209 205 209 210 224 234 238 244 293 270 299 279 238 245 252 256 236 242 253 257
340 335 339 338 47 330 340 335 329 335 329 280 283 280 178 201 251 234 232 245 212 220 205 236 243 234 215 219 210 232 216 234 237 237 252 203 276 263 231 243 237 250 224 232 243
334 340 339 352 290 321 296 313 318 310 343 249 243 196 181 182 312 223 222 208 232 191 186 220 236 224 231 229 205 233 211 217 223 235 247 234 274 262 261 240 241 239 238 234 238
329 334 329 51 184 243 295 306 252 89 262 312 220 305 158 228 264 324 186 234 214 240 251 252 275 313 247 231 231 228 233 262 233 231 232 234 221 266 246 254 257 236 232 238 241
329 321 316 167 255 102 346 3 39 190 300 319 339 330 317 256 242 220 231 185 194 181 222 251 255 251 279 299 219 205 200 226 220 212 236 228 221 250 314 268 248 260 254 248 256
324 321 325 227 165 136 351 60 128 260 299 314 327 307 273 289 241 213 230 233 227 258 220 225 256 221 215 217 211 213 208 218 228 236 249 210 222 239 233 248 253 251 257 259 264
341 340 333 270 146 137 101 78 209 228 292 332 341 335 359 5 351 336 234 255 224 216 240 233 233 237 207 206 198 209 215 228 252 264 284 235 240 266 255 251 262 262 253 248 254
7 356 303 343 141 119 86 244 251 242 331 332 324 15 333 346 12 16 314 64 340 34 303 262 268 264 265 214 218 218 203 214 227 239 243 235 251 238 270 238 237 236 239 252 252
43 39 334 103 116 235 219 234 267 271 271 262 307 296 296 314 305 316 293 300 234 146 324 262 244 250 269 234 226 206 225 231 251 228 236 248 243 228 259 268 278 262 264 292 306
61 55 298 302 237 214 236 322 305 271 265 267 282 264 271 284 286 279 251 256 345 258 331 353 232 249 247 260 291 268 241 226 224 233 230 237 247 272 257 253 250 269 292 299 297
67 316 321 239 273 298 331 288 257 295 276 285 279 267 313 301 314 296 279 332 40 61 25 12 287 267 261 239 251 250 243 255 244 250 242 242 241 240 246 257 260 259 294 295 288
88 20 321 14 353 34 360 292 308 285 280 296 273 280 268 265 257 272 270 287 311 306 289 155 266 288 283 310 341 289 291 292 263 250 244 242 253 249 248 256 255 277 290 293 307
55 244 196 312 337 335 308 274 297 308 338 349 306 24 356 297 274 256 286 299 286 282 277 174 240 214 240 264 287 248 265 276 267 282 260 282 248 254 261 270 279 284 296 292 298
140 131 9 266 276 244 239 252 286 304 343 310 271 329 332 292 296 302 318 295 267 315 307 187 263 237 263 243 246 256 260 259 265 251 265 247 279 281 290 288 277 267 270 283 293
245 259 209 253 226 181 229 234 265 330 294 250 305 309 299 292 294 282 266 264 268 281 271 293 279 256 267 263 263 260 232 234 239 231 233 233 235 242 270 270 278 283 273 263 267